GW1238 Weather Reports


time (UTC)temp
C
wind
direction
speed
KPH
gust
KPH
rain 1hr
cm
rain 24hr
cm
rain mn
cm
humidity
%
barometer
mb
20260904071434 25 329 3.2 3.2 0.00 0.00 0.00 95 1018.8
20260904070929 25 351 1.6 3.2 0.00 0.00 0.00 95 1018.7
20260904070428 25 352 1.6 3.2 0.00 0.00 0.00 95 1018.9
20260904065923 25 4 1.6 3.2 0.00 0.00 0.00 95 1018.8
20260904065419 25 337 3.2 3.2 0.00 0.00 0.00 94 1018.9
20260904064918 25 340 3.2 3.2 0.00 0.00 0.00 95 1018.9
20260904064414 25 330 3.2 3.2 0.00 0.00 0.00 94 1019.1
20260904063909 25 328 1.6 3.2 0.00 0.00 0.00 95 1018.9
20260904063406 25 322 3.2 3.2 0.00 0.00 0.00 94 1018.9
20260904062900 25 348 3.2 4.8 0.00 0.00 0.00 94 1018.8
20260904062356 25 318 3.2 3.2 0.00 0.00 0.00 94 1018.9
20260904061852 25 322 1.6 3.2 0.00 0.00 0.00 94 1019.0
20260904061349 25 333 1.6 3.2 0.00 0.00 0.00 93 1019.0
20260904060844 25 338 1.6 3.2 0.00 0.00 0.00 93 1018.9
20260904060340 25 336 1.6 3.2 0.00 0.00 0.00 93 1019.0
20260904055835 25 340 3.2 4.8 0.00 0.00 0.00 93 1019.0
20260904055330 25 341 3.2 3.2 0.00 0.00 0.00 92 1018.9
20260904054826 25 335 3.2 3.2 0.00 0.00 0.00 92 1018.9
20260904054322 25 329 3.2 4.8 0.00 0.00 0.00 92 1019.1
20260904053817 25 335 3.2 3.2 0.00 0.00 0.00 92 1019.0
20260904053317 25 337 3.2 4.8 0.00 0.00 0.00 91 1019.0
20260904052813 25 337 3.2 3.2 0.00 0.00 0.00 91 1019.3
20260904052309 25 358 3.2 3.2 0.00 0.00 0.00 91 1019.2
20260904051806 25 348 3.2 3.2 0.00 0.00 0.00 91 1019.3
20260904051301 25 343 3.2 3.2 0.00 0.00 0.00 91 1019.2
20260904050755 25 342 1.6 3.2 0.00 0.00 0.00 91 1019.2
20260904050252 25 335 3.2 3.2 0.00 0.00 0.00 91 1019.2
20260904045747 25 332 3.2 3.2 0.00 0.00 0.00 90 1019.3
20260904045241 25 335 1.6 3.2 0.00 0.00 0.00 90 1019.1
20260904044736 25 340 3.2 4.8 0.00 0.00 0.00 90 1019.3
20260904044233 26 335 3.2 3.2 0.00 0.00 0.00 90 1019.1
20260904043728 25 345 3.2 3.2 0.00 0.00 0.00 90 1019.5
20260904043225 25 337 3.2 3.2 0.00 0.00 0.00 90 1019.3
20260904042720 26 330 3.2 3.2 0.00 0.00 0.00 89 1019.4
20260904042216 26 344 1.6 3.2 0.00 0.00 0.00 90 1019.5
20260904041716 26 327 1.6 3.2 0.00 0.00 0.00 90 1019.5
20260904041212 26 344 1.6 3.2 0.00 0.00 0.00 90 1019.2
20260904040708 26 348 1.6 3.2 0.00 0.00 0.00 89 1019.5
20260904040203 26 337 3.2 3.2 0.00 0.00 0.00 88 1019.4
20260904035659 26 338 1.6 3.2 0.00 0.00 0.00 88 1019.4
20260904035154 26 349 3.2 4.8 0.00 0.00 0.00 89 1019.6
20260904034652 26 335 1.6 3.2 0.00 0.00 0.00 88 1019.6
20260904034149 26 335 3.2 3.2 0.00 0.00 0.00 88 1019.7
20260904033645 26 327 1.6 3.2 0.00 0.00 0.00 88 1019.7
20260904033141 26 346 1.6 3.2 0.00 0.00 0.00 88 1019.7
20260904032637 26 335 3.2 3.2 0.00 0.00 0.00 87 1019.5
20260904032136 26 338 3.2 3.2 0.00 0.00 0.00 87 1019.8
20260904031635 26 343 1.6 3.2 0.00 0.00 0.00 88 1019.8
20260904031131 26 333 3.2 3.2 0.00 0.00 0.00 88 1019.9
20260904030627 26 331 3.2 3.2 0.00 0.00 0.00 88 1019.7
20260904030128 26 337 3.2 3.2 0.00 0.00 0.00 87 1019.8
20260904025624 26 335 3.2 3.2 0.00 0.00 0.00 87 1020.0
20260904025119 26 336 1.6 3.2 0.00 0.00 0.00 87 1019.7
20260904024615 26 341 3.2 3.2 0.00 0.00 0.00 87 1019.8
20260904024110 26 344 1.6 3.2 0.00 0.00 0.00 88 1019.9
20260904023606 26 335 3.2 3.2 0.00 0.00 0.00 86 1020.0
20260904023102 26 339 1.6 3.2 0.00 0.00 0.00 86 1019.7
20260904022601 26 352 1.6 3.2 0.00 0.00 0.00 86 1019.6
20260904022059 26 344 3.2 3.2 0.00 0.00 0.00 86 1019.6
20260904021554 26 340 1.6 3.2 0.00 0.00 0.00 86 1019.7
20260904021048 26 333 3.2 3.2 0.00 0.00 0.00 86 1019.6
20260904020544 26 339 3.2 3.2 0.00 0.00 0.00 86 1019.4
20260904020038 27 349 1.6 3.2 0.00 0.00 0.00 86 1019.3
20260904015533 27 353 1.6 3.2 0.00 0.00 0.00 86 1019.3
20260904015033 27 340 1.6 3.2 0.00 0.00 0.00 85 1019.1
20260904014532 27 338 3.2 3.2 0.00 0.00 0.00 84 1019.3
20260904014027 27 324 3.2 3.2 0.00 0.00 0.00 84 1019.0
20260904013524 27 344 3.2 3.2 0.00 0.00 0.00 85 1019.2
20260904013020 27 339 3.2 3.2 0.00 0.00 0.00 84 1019.1
20260904012514 27 326 3.2 3.2 0.00 0.00 0.00 84 1019.0
20260904012008 27 339 3.2 3.2 0.00 0.00 0.00 83 1018.8
20260904011502 27 331 3.2 3.2 0.00 0.00 0.00 84 1019.0
20260904010958 27 341 3.2 3.2 0.00 0.00 0.00 83 1018.9
20260904010454 27 325 3.2 3.2 0.00 0.00 0.00 82 1018.7
20260904005949 27 356 1.6 3.2 0.00 0.00 0.00 83 1018.8
20260904005445 27 346 1.6 3.2 0.00 0.00 0.00 83 1018.5
20260904004945 27 336 3.2 3.2 0.00 0.00 0.00 83 1018.4
20260904004441 28 341 1.6 3.2 0.00 0.00 0.00 82 1018.7
20260904003941 28 323 1.6 1.6 0.00 0.00 0.00 82 1018.4
20260904003437 28 354 1.6 3.2 0.00 0.00 0.00 82 1018.5
20260904002932 28 339 3.2 3.2 0.00 0.00 0.00 82 1018.2
20260904002429 28 346 3.2 4.8 0.00 0.00 0.00 82 1018.1
20260904001927 28 338 1.6 3.2 0.00 0.00 0.00 83 1018.3
20260904001423 28 339 3.2 3.2 0.00 0.00 0.00 82 1018.1
20260904000918 28 321 1.6 3.2 0.00 0.00 0.00 81 1018.1
20260904000418 28 346 1.6 1.6 0.00 0.00 0.00 82 1017.9
20260903235912 28 339 1.6 3.2 0.00 0.00 0.00 82 1017.8
20260903235409 28 345 3.2 3.2 0.00 0.00 0.00 83 1017.7
20260903234908 28 336 3.2 3.2 0.00 0.00 0.00 82 1017.8
20260903234404 28 330 3.2 4.8 0.00 0.00 0.00 82 1017.9
20260903233900 29 335 1.6 3.2 0.00 0.00 0.00 81 1017.8
20260903233355 29 327 1.6 3.2 0.00 0.00 0.00 82 1017.7
20260903232854 29 342 1.6 3.2 0.00 0.00 0.00 81 1017.5
20260903232351 29 340 1.6 3.2 0.00 0.00 0.00 81 1017.6
20260903231849 29 338 3.2 3.2 0.00 0.00 0.00 81 1017.6
20260903231345 29 334 3.2 3.2 0.00 0.00 0.00 80 1017.8
20260903230840 30 330 1.6 3.2 0.00 0.00 0.00 80 1017.7
20260903230336 30 345 1.6 3.2 0.00 0.00 0.00 80 1017.7
20260903225832 30 339 1.6 3.2 0.00 0.00 0.00 81 1017.6
20260903225327 30 341 3.2 3.2 0.00 0.00 0.00 80 1017.6
20260903224824 30 338 3.2 3.2 0.00 0.00 0.00 80 1017.7
20260903224319 30 335 3.2 3.2 0.00 0.00 0.00 79 1017.5
20260903223815 30 336 3.2 3.2 0.00 0.00 0.00 79 1017.7
20260903223314 30 344 3.2 3.2 0.00 0.00 0.00 79 1017.8
20260903222809 30 339 3.2 3.2 0.00 0.00 0.00 78 1017.8
20260903222308 31 341 3.2 3.2 0.00 0.00 0.00 77 1017.8
20260903221803 31 341 3.2 3.2 0.00 0.00 0.00 75 1017.6
20260903221302 31 336 1.6 3.2 0.00 0.00 0.00 73 1017.6
20260903220800 31 343 1.6 3.2 0.00 0.00 0.00 74 1017.5
20260903220255 31 340 1.6 3.2 0.00 0.00 0.00 73 1017.7
20260903215753 31 335 3.2 4.8 0.00 0.00 0.00 73 1017.7
20260903215249 31 333 1.6 3.2 0.00 0.00 0.00 73 1017.6
20260903214747 31 327 1.6 3.2 0.00 0.00 0.00 70 1017.6
20260903214244 31 333 3.2 3.2 0.00 0.00 0.00 69 1017.7
20260903213737 31 338 3.2 3.2 0.00 0.00 0.00 68 1017.8
20260903213234 32 327 3.2 3.2 0.00 0.00 0.00 68 1017.7
20260903212730 33 342 1.6 3.2 0.00 0.00 0.00 66 1017.8
20260903212226 33 128 0.0 1.6 0.00 0.00 0.00 71 1017.7
20260903211725 33 136 1.6 3.2 0.00 0.00 0.00 69 1017.8
20260903211221 33 139 1.6 3.2 0.00 0.00 0.00 63 1017.9
20260903210718 33 132 3.2 4.8 0.00 0.00 0.00 65 1017.8
20260903210213 34 147 4.8 4.8 0.00 0.00 0.00 60 1018.0
20260903205712 34 166 3.2 4.8 0.00 0.00 0.00 58 1018.0
20260903205211 34 140 3.2 4.8 0.00 0.00 0.00 59 1018.0
20260903204707 34 160 6.4 6.4 0.00 0.00 0.00 61 1018.1
20260903204203 35 134 1.6 3.2 0.00 0.00 0.00 54 1018.1
20260903203658 35 142 1.6 3.2 0.00 0.00 0.00 56 1017.9
20260903203154 37 178 1.6 3.2 0.00 0.00 0.00 50 1018.1
20260903202648 37 184 0.0 1.6 0.00 0.00 0.00 54 1018.1
20260903202144 36 147 0.0 0.0 0.00 0.00 0.00 54 1018.1
20260903201638 35 127 1.6 1.6 0.00 0.00 0.00 57 1018.1
20260903201137 35 137 0.0 0.0 0.00 0.00 0.00 56 1018.2
20260903200632 34 97 1.6 1.6 0.00 0.00 0.00 57 1018.3
20260903200128 34 115 0.0 4.8 0.00 0.00 0.00 57 1018.4
20260903195624 34 95 3.2 4.8 0.00 0.00 0.00 59 1018.4
20260903195119 34 89 4.8 4.8 0.00 0.00 0.00 60 1018.7
20260903194614 34 99 4.8 4.8 0.00 0.00 0.00 56 1018.9
20260903194114 35 85 4.8 4.8 0.00 0.00 0.00 55 1018.8
20260903193610 35 116 4.8 12.9 0.00 0.00 0.00 54 1018.7
20260903193106 35 120 3.2 4.8 0.00 0.00 0.00 55 1018.9
20260903192602 35 129 1.6 4.8 0.00 0.00 0.00 56 1018.7
20260903192057 37 142 1.6 3.2 0.00 0.00 0.00 51 1019.0
20260903191553 36 136 1.6 1.6 0.00 0.00 0.00 52 1018.9
20260903191048 35 127 1.6 3.2 0.00 0.00 0.00 55 1019.1
20260903190542 36 119 3.2 3.2 0.00 0.00 0.00 58 1019.1
20260903190041 35 132 0.0 1.6 0.00 0.00 0.00 52 1019.2
20260903185536 35 108 1.6 3.2 0.00 0.00 0.00 54 1019.2
20260903185032 35 127 0.0 1.6 0.00 0.00 0.00 55 1019.3
20260903184528 35 128 1.6 3.2 0.00 0.00 0.00 56 1019.3
20260903184023 36 125 1.6 1.6 0.00 0.00 0.00 51 1019.3
20260903183522 38 154 0.0 0.0 0.00 0.00 0.00 50 1019.5
20260903183017 37 157 0.0 0.0 0.00 0.00 0.00 52 1019.5
20260903182516 37 158 0.0 0.0 0.00 0.00 0.00 54 1019.6
20260903182013 35 142 0.0 1.6 0.00 0.00 0.00 55 1019.8
20260903181511 34 146 0.0 1.6 0.00 0.00 0.00 58 1019.8
20260903181011 34 141 0.0 0.0 0.00 0.00 0.00 60 1019.8
20260903180507 33 131 1.6 3.2 0.00 0.00 0.00 60 1019.8
20260903180005 33 148 1.6 1.6 0.00 0.00 0.00 57 1020.1
20260903175505 33 125 1.6 1.6 0.00 0.00 0.00 62 1020.0
20260903175004 33 122 1.6 3.2 0.00 0.00 0.00 65 1020.2
20260903174459 32 109 3.2 3.2 0.00 0.00 0.00 67 1020.0
20260903173954 32 107 3.2 4.8 0.00 0.00 0.00 68 1020.1
20260903173449 32 115 1.6 3.2 0.00 0.00 0.00 68 1020.2
20260903172945 32 119 1.6 3.2 0.00 0.00 0.00 67 1020.0
20260903172440 32 117 1.6 1.6 0.00 0.00 0.00 67 1020.1
20260903171935 32 116 1.6 1.6 0.00 0.00 0.00 70 1020.4
20260903171430 32 119 1.6 3.2 0.00 0.00 0.00 68 1020.5
20260903170930 32 101 3.2 3.2 0.00 0.00 0.00 70 1020.5
20260903170425 32 110 3.2 3.2 0.00 0.00 0.00 68 1020.6
20260903165924 32 113 1.6 3.2 0.00 0.00 0.00 72 1020.7
20260903165419 31 104 3.2 4.8 0.00 0.00 0.00 71 1021.0
20260903164918 31 103 3.2 4.8 0.00 0.00 0.00 72 1020.9
20260903164414 31 105 3.2 4.8 0.00 0.00 0.00 71 1020.9
20260903163913 31 115 3.2 3.2 0.00 0.00 0.00 70 1021.0
20260903163410 31 102 3.2 4.8 0.00 0.00 0.00 75 1021.1
20260903162906 31 107 3.2 3.2 0.00 0.00 0.00 72 1020.8
20260903162402 31 99 3.2 4.8 0.00 0.00 0.00 73 1021.1
20260903161857 31 115 3.2 4.8 0.00 0.00 0.00 74 1021.0
20260903161352 31 116 3.2 3.2 0.00 0.00 0.00 76 1021.2
20260903160848 30 116 3.2 4.8 0.00 0.00 0.00 73 1021.1
20260903160347 30 130 3.2 3.2 0.00 0.00 0.00 76 1020.9
20260903155845 30 125 3.2 3.2 0.00 0.00 0.00 74 1021.2
20260903155341 30 115 3.2 4.8 0.00 0.00 0.00 75 1021.1
20260903154836 30 123 3.2 3.2 0.00 0.00 0.00 75 1021.1
20260903154332 30 124 3.2 3.2 0.00 0.00 0.00 77 1021.1
20260903153827 30 132 3.2 4.8 0.00 0.00 0.00 76 1021.2
20260903153323 30 123 3.2 3.2 0.00 0.00 0.00 74 1021.2
20260903152819 30 121 1.6 3.2 0.00 0.00 0.00 74 1021.4
20260903152315 30 116 1.6 3.2 0.00 0.00 0.00 77 1021.2
20260903151810 30 124 0.0 1.6 0.00 0.00 0.00 77 1021.4
20260903151306 30 117 1.6 3.2 0.00 0.00 0.00 79 1021.1
20260903150805 29 113 3.2 3.2 0.00 0.00 0.00 78 1021.2
20260903150259 29 115 3.2 3.2 0.00 0.00 0.00 78 1021.2
20260903145755 29 107 1.6 3.2 0.00 0.00 0.00 79 1021.2
20260903145250 29 112 1.6 3.2 0.00 0.00 0.00 79 1021.3
20260903144748 29 114 3.2 3.2 0.00 0.00 0.00 80 1021.5
20260903144244 28 113 3.2 4.8 0.00 0.00 0.00 80 1021.4
20260903143740 28 110 3.2 3.2 0.00 0.00 0.00 80 1021.4
20260903143236 28 106 3.2 4.8 0.00 0.00 0.00 81 1021.4
20260903142732 28 112 3.2 4.8 0.00 0.00 0.00 82 1021.3
20260903142228 28 106 3.2 4.8 0.00 0.00 0.00 82 1021.4
20260903141723 28 104 3.2 4.8 0.00 0.00 0.00 82 1021.5
20260903141219 28 115 3.2 4.8 0.00 0.00 0.00 82 1021.4
20260903140714 28 98 4.8 4.8 0.00 0.00 0.00 82 1021.5
20260903140214 28 91 6.4 6.4 0.00 0.00 0.00 84 1021.7
20260903135710 28 107 4.8 6.4 0.00 0.00 0.00 87 1021.4
20260903135206 27 99 3.2 6.4 0.00 0.00 0.00 84 1021.2
20260903134704 27 104 4.8 6.4 0.00 0.00 0.00 86 1021.4
20260903134200 27 100 4.8 6.4 0.00 0.00 0.00 86 1021.7
20260903133658 27 107 4.8 6.4 0.00 0.00 0.00 88 1021.4
20260903133154 27 100 4.8 6.4 0.00 0.00 0.00 88 1021.5
20260903132654 27 109 4.8 4.8 0.00 0.00 0.00 85 1021.3
20260903132149 27 107 4.8 6.4 0.00 0.00 0.00 86 1021.6
20260903131644 27 105 3.2 6.4 0.00 0.00 0.00 86 1021.6
20260903131143 27 119 0.0 4.8 0.00 0.00 0.00 86 1021.5
20260903130638 27 94 1.6 6.4 0.00 0.00 0.00 85 1021.5
20260903130137 27 56 1.6 4.8 0.00 0.00 0.00 86 1021.5
20260903125635 27 93 3.2 4.8 0.00 0.00 0.00 86 1021.3
20260903125132 27 101 3.2 4.8 0.00 0.00 0.00 87 1021.4
20260903124631 27 86 3.2 4.8 0.00 0.00 0.00 87 1021.5
20260903124125 26 53 0.0 0.0 0.00 0.00 0.00 88 1021.6
20260903123626 26 76 0.0 1.6 0.00 0.00 0.00 89 1021.4
20260903123125 25 343 1.6 3.2 0.00 0.00 0.00 90 1021.6
20260903122624 25 345 1.6 3.2 0.00 0.00 0.00 92 1021.7
20260903122118 24 343 1.6 3.2 0.00 0.00 0.00 94 1021.6
20260903121617 24 0 1.6 3.2 0.00 0.00 0.00 94 1021.6
20260903121113 24 338 3.2 4.8 0.00 0.00 0.00 94 1021.5
20260903120612 23 332 1.6 3.2 0.00 0.00 0.00 95 1021.3
20260903120107 23 330 1.6 3.2 0.00 0.00 0.00 95 1021.3
20260903115605 23 338 1.6 3.2 0.00 0.00 0.00 96 1021.2
20260903115100 23 324 3.2 4.8 0.00 0.00 0.00 96 1021.3
20260903114555 23 335 3.2 3.2 0.00 0.00 0.00 96 1020.9
20260903114051 23 340 3.2 3.2 0.00 0.00 0.00 96 1021.1
20260903113547 23 341 3.2 3.2 0.00 0.00 0.00 96 1021.0
20260903113043 23 332 3.2 3.2 0.00 0.00 0.00 96 1020.8
20260903112538 23 343 1.6 4.8 0.00 0.00 0.00 96 1021.1
20260903112033 23 336 3.2 3.2 0.00 0.00 0.00 96 1020.8
20260903111532 23 331 3.2 3.2 0.00 0.00 0.00 96 1020.7
20260903111028 23 335 3.2 3.2 0.00 0.00 0.00 96 1020.8
20260903110524 23 348 3.2 3.2 0.00 0.00 0.00 96 1020.7
20260903110024 23 338 3.2 3.2 0.00 0.00 0.00 96 1020.6
20260903105519 23 324 3.2 3.2 0.00 0.00 0.00 96 1020.6
20260903105014 23 11 1.6 3.2 0.00 0.00 0.00 96 1020.6
20260903104513 23 348 3.2 3.2 0.00 0.00 0.00 96 1020.5
20260903104009 23 338 3.2 3.2 0.00 0.00 0.00 96 1020.6
20260903103505 23 339 3.2 3.2 0.00 0.00 0.00 96 1020.6
20260903103001 23 330 3.2 3.2 0.00 0.00 0.00 96 1020.6
20260903102456 23 334 3.2 3.2 0.00 0.00 0.00 96 1020.6
20260903101954 23 338 3.2 3.2 0.00 0.00 0.00 96 1020.5
20260903101449 23 342 3.2 3.2 0.00 0.00 0.00 96 1020.4
20260903100945 23 335 3.2 3.2 0.00 0.00 0.00 96 1020.3
20260903100440 23 329 3.2 3.2 0.00 0.00 0.00 96 1020.6
20260903095937 23 332 1.6 3.2 0.00 0.00 0.00 97 1020.5
20260903095432 23 342 3.2 3.2 0.00 0.00 0.00 97 1020.5
20260903094927 23 332 1.6 3.2 0.00 0.00 0.00 96 1020.3
20260903094426 23 328 1.6 3.2 0.00 0.00 0.00 96 1020.4
20260903093924 23 335 3.2 3.2 0.00 0.00 0.00 96 1020.6
20260903093424 23 336 3.2 4.8 0.00 0.00 0.00 96 1020.6
20260903092919 23 343 1.6 3.2 0.00 0.00 0.00 95 1020.3
20260903092414 23 336 3.2 3.2 0.00 0.00 0.00 95 1020.5
20260903091913 23 337 3.2 3.2 0.00 0.00 0.00 95 1020.5
20260903091411 23 338 3.2 3.2 0.00 0.00 0.00 94 1020.3
20260903090912 23 341 3.2 3.2 0.00 0.00 0.00 94 1020.5
20260903090407 23 328 3.2 3.2 0.00 0.00 0.00 94 1020.2
20260903085906 23 331 3.2 3.2 0.00 0.00 0.00 94 1020.4
20260903085404 23 332 3.2 3.2 0.00 0.00 0.00 94 1020.3
20260903084904 23 341 3.2 3.2 0.00 0.00 0.00 94 1020.3
20260903084403 24 347 1.6 3.2 0.00 0.00 0.00 94 1020.3
20260903083858 23 334 3.2 3.2 0.00 0.00 0.00 94 1020.2
20260903083354 23 329 3.2 4.8 0.00 0.00 0.00 93 1020.4
20260903082853 23 337 3.2 3.2 0.00 0.00 0.00 93 1020.4
20260903082348 23 342 3.2 3.2 0.00 0.00 0.00 93 1020.5
20260903081843 23 333 3.2 4.8 0.00 0.00 0.00 93 1020.3
20260903081338 24 330 3.2 3.2 0.00 0.00 0.00 93 1020.2
20260903080835 24 337 3.2 4.8 0.00 0.00 0.00 93 1020.1
20260903080332 24 330 3.2 3.2 0.00 0.00 0.00 93 1020.1
20260903075831 24 335 3.2 3.2 0.00 0.00 0.00 93 1020.2
20260903075326 24 336 3.2 3.2 0.00 0.00 0.00 93 1020.4
20260903074821 24 338 3.2 3.2 0.00 0.00 0.00 92 1020.2
20260903074321 24 334 3.2 3.2 0.00 0.00 0.00 93 1020.2
20260903073817 24 324 3.2 3.2 0.00 0.00 0.00 92 1020.1
20260903073312 24 347 3.2 3.2 0.00 0.00 0.00 92 1019.9
20260903072808 24 340 3.2 3.2 0.00 0.00 0.00 92 1020.2
20260903072306 24 335 3.2 3.2 0.00 0.00 0.00 92 1020.3